�N����,����,�~����,�C��,���x,�C��,����,���ϕ���,�ő�u�ԕ���,�ő厞����,���˗�,�I�_���x,�n�����x,�ő啗���N��,DTYPE
"23/08/26","00:10",0.0,25.0,92.8,1004.5,344.8,0.6,0.9,333.0,0.00,23.8,26.3,"00:03:36",1
"23/08/26","00:20",0.0,25.0,92.8,1004.5,291.1,0.5,0.9,261.8,0.00,23.8,26.2,"00:14:16",1
"23/08/26","00:30",0.0,24.9,92.9,1004.5,311.0,0.3,1.0,329.5,0.00,23.7,26.4,"00:27:04",1
"23/08/26","00:40",0.0,24.8,93.0,1004.3,324.2,0.7,1.0,337.8,0.00,23.6,26.3,"00:32:32",1
"23/08/26","00:50",0.0,24.6,93.2,1004.3,277.6,0.5,0.9,247.5,0.00,23.5,26.7,"00:45:04",1
"23/08/26","01:00",0.0,24.5,93.3,1004.5,303.2,0.8,1.3,306.8,0.00,23.4,26.5,"00:56:08",1
"23/08/26","01:10",0.0,24.4,93.4,1004.5,297.4,0.7,1.1,318.2,0.00,23.3,26.4,"01:09:12",1
"23/08/26","01:20",0.0,24.3,93.5,1004.5,328.7,0.6,1.0,297.5,0.00,23.2,26.3,"01:11:44",1
"23/08/26","01:30",0.0,24.3,93.6,1004.3,306.3,0.8,1.2,323.0,0.00,23.2,26.4,"01:24:56",1
"23/08/26","01:40",0.0,24.2,93.7,1004.3,254.1,0.5,1.0,249.4,0.00,23.2,26.3,"01:35:28",1
"23/08/26","01:50",0.0,24.2,93.8,1004.1,320.1,1.0,1.3,317.8,0.00,23.2,26.2,"01:41:12",1
"23/08/26","02:00",0.0,24.3,93.9,1004.5,312.4,0.3,1.7,332.0,0.00,23.3,26.2,"01:50:16",1
"23/08/26","02:10",0.0,24.4,94.0,1004.5,290.5,0.7,1.4,321.2,0.00,23.4,26.2,"02:08:56",1
"23/08/26","02:20",0.0,24.5,94.0,1004.5,318.6,0.8,1.2,318.0,0.00,23.5,26.2,"02:12:32",1
"23/08/26","02:30",0.0,24.5,94.0,1004.5,310.5,0.8,1.4,338.9,0.00,23.5,26.2,"02:21:20",1
"23/08/26","02:40",0.0,24.4,94.1,1004.3,287.0,0.2,0.8,287.1,0.00,23.4,26.1,"02:37:36",1
"23/08/26","02:50",0.0,24.4,94.2,1004.3,287.1,0.7,1.1,286.3,0.00,23.4,26.0,"02:46:16",1
"23/08/26","03:00",0.0,24.4,94.2,1004.5,324.6,1.0,1.4,331.4,0.00,23.4,26.0,"02:54:56",1
"23/08/26","03:10",0.0,24.3,94.2,1004.5,322.0,0.8,1.4,318.5,0.00,23.3,26.2,"03:02:08",1
"23/08/26","03:20",0.0,24.1,94.3,1004.8,307.1,0.7,1.0,307.6,0.00,23.2,26.1,"03:10:56",1
"23/08/26","03:30",0.0,24.1,94.4,1004.5,328.0,0.7,1.1,341.0,0.00,23.2,26.2,"03:26:16",1
"23/08/26","03:40",0.0,23.9,94.5,1004.5,307.3,0.7,1.1,329.9,0.00,23.0,26.1,"03:32:24",1
"23/08/26","03:50",0.0,23.9,94.6,1004.5,286.3,0.7,1.3,318.9,0.00,23.0,26.0,"03:48:56",1
"23/08/26","04:00",0.0,23.9,94.6,1004.5,315.8,0.8,1.2,330.4,0.00,23.0,26.1,"03:51:20",1
"23/08/26","04:10",0.0,23.7,94.6,1004.8,316.9,0.8,1.1,335.6,0.00,22.8,26.1,"04:01:12",1
"23/08/26","04:20",0.0,23.7,94.7,1004.8,302.5,0.6,1.3,308.3,0.00,22.8,25.9,"04:12:40",1
"23/08/26","04:30",0.0,23.5,94.8,1004.8,285.0,0.6,1.0,324.6,0.00,22.7,26.1,"04:29:28",1
"23/08/26","04:40",0.0,23.4,94.9,1004.8,320.5,0.8,1.0,332.9,0.00,22.6,26.0,"04:30:56",1
"23/08/26","04:50",0.0,23.4,94.9,1004.5,319.0,0.8,1.9,308.2,0.00,22.6,25.9,"04:41:20",1
"23/08/26","05:00",0.0,23.3,95.0,1005.0,285.4,0.6,1.1,296.5,0.00,22.5,25.9,"04:59:44",1
"23/08/26","05:10",0.0,23.4,95.1,1004.8,302.8,0.8,1.4,321.0,0.00,22.6,26.1,"05:00:16",1
"23/08/26","05:20",0.0,23.3,95.1,1004.8,288.3,0.6,1.1,265.0,0.00,22.5,25.9,"05:15:12",1
"23/08/26","05:30",0.0,23.4,95.2,1005.0,320.5,1.0,1.6,327.7,0.00,22.6,25.9,"05:23:44",1
"23/08/26","05:40",0.0,23.3,95.2,1005.2,318.7,1.0,1.6,336.5,0.00,22.5,25.9,"05:32:48",1
"23/08/26","05:50",0.0,23.4,95.3,1005.2,316.0,1.1,1.9,323.6,0.00,22.6,25.7,"05:45:44",1
"23/08/26","06:00",0.0,23.5,95.3,1005.2,327.0,0.7,1.2,337.5,0.00,22.7,25.8,"05:55:04",1
"23/08/26","06:10",0.0,23.8,95.3,1005.0,317.9,0.6,1.1,301.9,0.00,23.0,25.8,"06:08:32",1
"23/08/26","06:20",0.0,24.0,95.3,1005.0,302.5,0.8,1.7,333.5,0.01,23.2,25.7,"06:13:04",1
"23/08/26","06:30",0.0,24.3,95.1,1005.2,329.9,0.8,1.8,345.9,0.02,23.5,25.7,"06:28:08",1
"23/08/26","06:40",0.0,24.8,94.8,1005.0,350.2,0.8,1.9,352.7,0.03,23.9,25.5,"06:31:28",1
"23/08/26","06:50",0.0,25.4,94.4,1004.8,358.3,0.7,1.8,342.8,0.05,24.5,25.7,"06:40:40",1
"23/08/26","07:00",0.0,25.6,93.4,1004.5,350.3,0.8,2.1,349.8,0.07,24.5,25.5,"06:59:52",1
"23/08/26","07:10",0.0,26.1,92.4,1004.8,344.9,0.8,2.2,346.0,0.08,24.8,25.5,"07:00:16",1
"23/08/26","07:20",0.0,27.1,91.4,1004.8,0.1,0.3,1.1,347.8,0.10,25.6,25.6,"07:10:32",1
"23/08/26","07:30",0.0,27.6,89.4,1004.3,299.5,0.5,1.7,246.9,0.12,25.7,25.7,"07:22:00",1
"23/08/26","07:40",0.0,28.5,85.9,1003.8,22.4,0.5,1.4,27.9,0.14,25.9,25.5,"07:38:48",1
"23/08/26","07:50",0.0,29.3,80.6,1004.5,21.7,0.5,1.1,15.0,0.17,25.7,25.7,"07:43:20",1
"23/08/26","08:00",0.0,29.3,76.0,1005.2,233.4,0.7,1.7,225.7,0.19,24.7,25.7,"07:57:52",1
"23/08/26","08:10",0.0,29.5,75.7,1005.7,176.4,0.7,1.7,204.6,0.21,24.8,25.6,"08:02:00",1
"23/08/26","08:20",0.0,30.0,74.2,1005.7,145.3,0.8,2.1,183.2,0.24,24.9,25.7,"08:14:40",1
"23/08/26","08:30",0.0,30.3,73.7,1006.2,103.2,0.7,1.7,185.6,0.21,25.1,25.7,"08:21:28",1
"23/08/26","08:40",0.0,30.9,71.1,1006.0,72.4,0.6,1.6,13.3,0.30,25.1,25.8,"08:34:08",1
"23/08/26","08:50",0.0,31.3,69.3,1006.0,115.1,1.0,2.4,131.3,0.33,25.0,25.9,"08:47:36",1
"23/08/26","09:00",0.0,31.3,70.1,1006.2,142.9,1.0,2.2,128.2,0.34,25.2,25.9,"08:52:32",1
"23/08/26","09:10",0.0,31.4,70.2,1006.2,113.5,1.0,2.7,112.4,0.33,25.4,25.7,"09:03:52",1
"23/08/26","09:20",0.0,32.0,69.6,1006.4,115.9,1.0,2.0,165.3,0.39,25.8,25.8,"09:12:24",1
"23/08/26","09:30",0.0,31.9,67.8,1006.4,129.3,1.0,2.2,173.5,0.40,25.2,25.9,"09:21:52",1
"23/08/26","09:40",0.0,32.1,65.7,1006.7,76.7,1.1,3.3,2.6,0.42,24.9,26.0,"09:38:16",1
"23/08/26","09:50",0.0,31.8,65.8,1006.0,20.7,0.7,1.9,356.3,0.33,24.6,26.1,"09:41:52",1
"23/08/26","10:00",0.0,32.6,66.8,1006.7,130.2,1.0,2.5,145.6,0.49,25.7,26.1,"09:53:28",1
"23/08/26","10:10",0.0,33.3,62.9,1006.7,35.8,0.7,1.8,23.9,0.51,25.3,26.2,"10:08:16",1
"23/08/26","10:20",0.0,32.9,62.4,1006.0,52.9,1.0,2.4,2.5,0.36,24.8,26.2,"10:19:20",1
"23/08/26","10:30",0.0,32.8,62.5,1006.2,7.4,1.2,2.9,205.1,0.52,24.7,25.9,"10:27:44",1
"23/08/26","10:40",0.0,32.8,61.5,1006.0,133.4,1.0,2.0,29.1,0.44,24.5,26.3,"10:36:48",1
"23/08/26","10:50",0.0,33.3,62.1,1006.0,164.7,1.3,3.1,178.3,0.54,25.1,26.7,"10:43:28",1
"23/08/26","11:00",0.0,32.7,62.1,1005.7,127.4,0.8,2.5,169.5,0.22,24.5,26.4,"10:56:48",1
"23/08/26","11:10",0.0,33.3,63.1,1006.0,118.6,1.1,3.2,110.5,0.43,25.4,26.5,"11:02:00",1
"23/08/26","11:20",0.0,33.7,63.4,1005.7,137.8,1.0,2.2,99.7,0.48,25.8,26.5,"11:10:08",1
"23/08/26","11:30",0.0,33.6,60.2,1006.0,138.6,1.3,2.7,134.0,0.44,24.9,26.6,"11:21:04",1
"23/08/26","11:40",0.0,32.8,61.2,1005.2,151.5,0.5,1.7,124.9,0.13,24.4,26.6,"11:34:24",1
"23/08/26","11:50",0.0,33.3,61.9,1005.2,61.1,0.6,1.6,323.6,0.30,25.0,26.7,"11:40:02",1
"23/08/26","12:00",0.0,33.5,61.2,1005.0,124.5,0.8,3.1,119.9,0.40,25.0,26.7,"11:58:48",1
"23/08/26","12:10",0.0,33.4,59.1,1005.0,142.6,1.0,2.6,118.6,0.28,24.4,26.8,"12:00:32",1
"23/08/26","12:20",0.0,33.5,62.1,1004.8,53.2,0.7,1.6,83.0,0.23,25.3,26.8,"12:12:08",1
"23/08/26","12:30",0.0,33.6,60.8,1004.8,127.6,1.0,2.7,70.3,0.32,25.0,26.8,"12:22:00",1
"23/08/26","12:40",0.0,32.8,60.8,1004.3,136.6,1.0,1.9,114.7,0.15,24.3,27.1,"12:30:08",1
"23/08/26","12:50",0.0,33.6,61.2,1004.3,135.6,0.7,1.8,181.0,0.43,25.1,26.9,"12:41:12",1
"23/08/26","13:00",0.0,33.8,58.7,1004.1,114.1,0.8,2.1,200.9,0.19,24.6,27.3,"12:51:36",1
"23/08/26","13:10",0.0,34.0,61.9,1003.8,320.6,0.7,1.9,29.3,0.30,25.7,27.1,"13:07:44",1
"23/08/26","13:20",0.0,34.2,58.8,1004.3,323.8,1.1,2.1,323.0,0.56,25.0,27.4,"13:17:36",1
"23/08/26","13:30",0.0,34.5,57.3,1004.3,14.8,0.8,2.4,18.0,0.30,24.9,27.1,"13:23:44",1
"23/08/26","13:40",0.0,33.4,63.6,1003.4,8.6,1.1,2.6,6.7,0.08,25.6,27.3,"13:35:52",1
"23/08/26","13:50",0.0,32.6,66.3,1003.1,347.6,1.2,2.6,345.5,0.25,25.5,27.4,"13:47:36",1
"23/08/26","14:00",0.0,33.7,62.3,1002.9,348.7,1.2,2.4,328.6,0.46,25.5,27.4,"13:50:40",1
"23/08/26","14:10",0.0,34.2,57.0,1003.1,310.1,1.0,3.1,346.2,0.42,24.5,27.4,"14:06:48",1
"23/08/26","14:20",0.0,34.7,55.8,1003.4,225.8,1.8,3.7,235.5,0.43,24.6,27.4,"14:16:00",1
"23/08/26","14:30",0.0,34.7,54.1,1003.4,293.9,1.2,2.9,219.9,0.41,24.1,27.4,"14:20:40",1
"23/08/26","14:40",0.0,34.9,52.3,1003.1,302.3,1.1,2.4,317.5,0.39,23.7,27.6,"14:38:40",1
"23/08/26","14:50",0.0,35.5,53.7,1003.4,352.7,1.0,1.9,358.8,0.38,24.7,27.9,"14:47:20",1
"23/08/26","15:00",0.0,35.9,52.2,1002.6,319.2,0.8,2.9,348.6,0.37,24.6,27.7,"14:50:08",1
"23/08/26","15:10",0.0,35.5,50.5,1003.1,190.9,0.7,2.2,127.1,0.23,23.7,27.8,"15:06:24",1
"23/08/26","15:20",0.0,35.3,51.0,1002.9,101.2,1.0,3.5,150.1,0.27,23.7,27.7,"15:10:40",1
"23/08/26","15:30",0.0,35.2,56.2,1002.6,32.0,0.7,1.8,55.9,0.18,25.2,27.9,"15:24:48",1
"23/08/26","15:40",0.0,35.7,52.2,1002.4,93.8,0.8,2.1,86.9,0.26,24.4,27.7,"15:38:40",1
"23/08/26","15:50",0.0,35.9,52.3,1002.4,75.4,0.7,1.9,151.1,0.23,24.6,28.1,"15:40:48",1
"23/08/26","16:00",0.0,35.0,53.8,1002.4,114.6,0.7,2.2,62.2,0.14,24.3,27.8,"15:58:48",1
"23/08/26","16:10",0.0,33.0,56.0,1002.2,151.4,1.1,2.9,144.8,0.03,23.1,27.9,"16:01:28",1
"23/08/26","16:20",0.0,33.4,56.5,1001.5,127.8,1.1,4.1,134.1,0.12,23.6,27.8,"16:16:24",1
"23/08/26","16:30",0.0,34.7,54.5,1001.5,88.4,0.7,2.1,8.0,0.15,24.2,27.9,"16:27:28",1
"23/08/26","16:40",0.0,34.3,54.9,1001.7,111.4,1.1,2.6,124.9,0.10,24.0,27.9,"16:36:00",1
"23/08/26","16:50",0.0,34.0,56.2,1001.7,110.2,1.1,2.5,141.7,0.10,24.1,27.9,"16:48:56",1
"23/08/26","17:00",0.0,33.8,57.2,1001.5,129.6,1.2,2.4,168.6,0.09,24.2,27.9,"16:54:56",1
"23/08/26","17:10",0.0,33.6,57.0,1001.5,119.2,1.0,2.4,131.5,0.06,23.9,28.0,"17:08:40",1
"23/08/26","17:20",0.0,33.3,57.0,1001.2,113.5,1.0,2.7,99.3,0.04,23.7,27.8,"17:18:00",1
"23/08/26","17:30",0.0,33.3,56.1,1001.5,101.3,0.8,2.4,105.4,0.03,23.4,27.9,"17:20:08",1
"23/08/26","17:40",0.0,33.1,57.8,1001.2,113.9,1.1,1.9,159.6,0.02,23.7,27.9,"17:33:36",1
"23/08/26","17:50",0.0,32.5,59.3,1001.2,103.5,1.0,3.1,117.6,0.00,23.6,27.7,"17:42:40",1
"23/08/26","18:00",0.0,31.8,61.5,1000.8,110.8,0.7,2.2,123.7,0.00,23.5,27.9,"17:51:28",1
"23/08/26","18:10",0.0,31.5,63.5,1001.0,47.2,0.6,1.6,83.7,0.00,23.8,27.8,"18:00:08",1
"23/08/26","18:20",0.0,31.1,65.5,1000.5,19.4,0.6,1.8,9.8,0.00,23.9,27.7,"18:18:00",1
"23/08/26","18:30",0.0,30.5,67.1,1000.8,358.9,0.8,1.6,354.1,0.00,23.7,27.5,"18:21:52",1
"23/08/26","18:40",0.0,30.0,69.0,1000.8,302.1,0.7,1.7,318.5,0.00,23.7,27.7,"18:39:44",1
"23/08/26","18:50",0.0,29.7,71.5,1000.3,329.6,0.5,1.4,3.2,0.00,24.0,27.7,"18:43:12",1
"23/08/26","19:00",0.0,29.8,68.2,1000.3,138.3,0.8,2.1,132.0,0.00,23.3,27.7,"18:54:00",1
"23/08/26","19:10",0.0,30.0,65.4,1000.5,188.8,0.6,1.7,137.3,0.00,22.8,27.7,"19:07:36",1
"23/08/26","19:20",0.0,30.2,68.4,1000.3,334.0,0.8,1.7,359.2,0.00,23.8,27.7,"19:19:04",1
"23/08/26","19:30",0.0,29.2,72.8,1000.8,358.7,0.7,2.1,347.9,0.00,23.9,27.6,"19:20:40",1
"23/08/26","19:40",0.0,28.4,75.9,1001.2,350.1,0.6,1.3,244.7,0.00,23.8,27.7,"19:38:48",1
"23/08/26","19:50",0.0,28.7,75.1,1001.5,208.4,1.2,2.5,219.8,0.00,23.9,27.6,"19:47:28",1
"23/08/26","20:00",0.0,28.5,75.1,1001.9,317.9,0.7,1.6,340.1,0.00,23.7,27.7,"19:50:56",1
"23/08/26","20:10",0.0,28.2,76.6,1002.2,348.6,0.7,1.3,354.5,0.00,23.7,27.4,"20:06:32",1
"23/08/26","20:20",0.0,27.3,79.1,1002.4,334.9,1.2,1.8,335.8,0.00,23.4,27.4,"20:12:16",1
"23/08/26","20:30",0.0,27.0,80.9,1002.9,290.6,0.8,1.7,249.1,0.00,23.5,27.4,"20:28:40",1
"23/08/26","20:40",0.0,27.0,81.1,1002.9,294.9,1.0,2.0,239.8,0.00,23.5,27.2,"20:36:24",1
"23/08/26","20:50",0.0,27.1,81.4,1003.1,320.2,1.0,1.8,324.5,0.00,23.7,27.3,"20:49:20",1
"23/08/26","21:00",0.0,26.8,81.8,1003.1,325.1,1.0,1.4,272.5,0.00,23.5,27.3,"20:51:12",1
"23/08/26","21:10",0.0,26.7,82.4,1002.9,332.5,0.7,1.7,334.6,0.00,23.5,27.3,"21:02:16",1
"23/08/26","21:20",0.0,26.5,83.5,1003.4,334.3,1.0,1.3,342.9,0.00,23.5,27.2,"21:13:52",1
"23/08/26","21:30",0.0,26.0,84.6,1003.4,294.1,0.6,0.9,324.7,0.00,23.2,27.1,"21:20:16",1
"23/08/26","21:40",0.0,25.9,85.2,1003.1,271.8,0.6,1.2,259.4,0.00,23.3,27.1,"21:31:12",1
"23/08/26","21:50",0.0,26.0,85.3,1003.1,306.8,0.8,1.8,341.6,0.00,23.4,27.0,"21:47:28",1
"23/08/26","22:00",0.0,26.0,85.4,1002.9,332.3,0.8,1.7,340.5,0.00,23.4,27.0,"21:55:12",1
"23/08/26","22:10",0.0,25.9,85.5,1002.9,291.9,0.8,1.9,253.1,0.00,23.3,27.1,"22:05:44",1
"23/08/26","22:20",0.0,26.0,85.4,1003.1,317.4,0.7,1.3,339.9,0.00,23.4,27.0,"22:16:16",1
"23/08/26","22:30",0.0,25.8,85.6,1002.9,306.9,0.7,1.9,331.6,0.00,23.2,26.8,"22:27:36",1
"23/08/26","22:40",0.0,25.8,85.5,1003.4,276.7,0.8,1.4,245.0,0.00,23.2,26.9,"22:34:32",1
"23/08/26","22:50",0.0,25.8,85.5,1003.4,334.3,0.8,1.7,342.3,0.00,23.2,26.9,"22:48:24",1
"23/08/26","23:00",0.0,25.8,85.7,1003.4,351.2,1.0,1.8,347.7,0.00,23.3,26.9,"22:50:08",1
"23/08/26","23:10",0.0,25.5,86.2,1002.6,329.5,0.7,1.1,356.1,0.00,23.1,26.7,"23:03:04",1
"23/08/26","23:20",0.0,25.3,86.7,1002.9,332.1,0.6,1.2,268.7,0.00,23.0,26.7,"23:14:40",1
"23/08/26","23:30",0.0,25.1,87.2,1003.1,346.7,0.5,1.0,334.9,0.00,22.9,26.7,"23:22:08",1
"23/08/26","23:40",0.0,25.2,87.8,1003.4,328.9,0.8,1.6,304.4,0.00,23.1,26.7,"23:30:02",1
"23/08/26","23:50",0.0,25.1,88.3,1003.1,292.3,0.7,1.7,338.6,0.00,23.1,26.8,"23:40:40",1
"23/08/26","24:00",0.0,25.2,88.5,1003.4,303.1,0.8,1.8,266.1,0.00,23.2,26.5,"23:59:44",1
